Regional Weather Roundup
Issued by NWS Northern Indiana

Home | Current Version | Previous Version | Graphics & Text | Print | Product List | Glossary On
Versions: 1 2 3 4 5 6 7 8 9 10 11 12 13 14 15 16 17 18 19 20 21 22 23 24 25 26 27 28 29 30 31 32 33 34 35 36 37 38 39 40 41 42 43 44 45 46 47 48 49 50
000
ASUS43 KIWX 200610
RWRIWX

KIWX WEATHER ROUNDUP
NATIONAL WEATHER SERVICE NORTHERN INDIANA
200 AM EDT SAT SEP 20 2014

NOTE: "FAIR" INDICATES FEW OR NO CLOUDS BELOW 12,000 FEET WITH NO
SIGNIFICANT WEATHER AND/OR OBSTRUCTIONS TO VISIBILITY.

* THESE STATIONS ARE NOT UNDER NWS QUALITY CONTROL. THEY ALSO MAY NOT
  REPORT WEATHER SUCH AS PRECIPITATION OR FOG.

INZ001>027-200700-
NORTHERN INDIANA

CITY           SKY/WX    TMP DP  RH WIND       PRES   REMARKS
GARY*          CLEAR     64  50  60 S7        29.94F
VALPARAISO     CLEAR     58  50  75 S7        29.97F
6HR MIN TEMP:  56; 6HR MAX TEMP:  65;

MICHIGAN CITY* CLEAR     61  46  59 S9        29.96F
LAPORTE*       CLEAR     56  48  74 S7        29.97F
6HR MIN TEMP:  56; 6HR MAX TEMP:  63;

KNOX*          CLEAR     56  48  75 S7        29.97F
6HR MIN TEMP:  41; 6HR MAX TEMP:  89;

SOUTH BEND     CLEAR     59  48  67 S8        29.98F
6HR MIN TEMP:  59; 6HR MAX TEMP:  66;

GOSHEN         CLEAR     58  49  72 S9        29.99F
6HR MIN TEMP:  56; 6HR MAX TEMP:  63;

MONTICELLO*    CLEAR     58  50  75 S6        30.00F
6HR MIN TEMP:  55; 6HR MAX TEMP:  63;

LOGANSPORT*    CLEAR     50  45  81 S8        30.02F
ROCHESTER*     CLEAR     59  50  72 S6        30.01F
WARSAW*        CLEAR     55  48  76 CALM      30.01F
ANGOLA*        CLEAR     52  46  82 S3        30.01F
FORT WAYNE     PTCLDY    53  47  79 S6        30.03F
6HR MIN TEMP:  51; 6HR MAX TEMP:  62;

HUNTINGTON*    CLEAR     54  49  85 S3        30.02F
6HR MIN TEMP:  51; 6HR MAX TEMP:  59;

PERU/GRISSOM   CLEAR     52  52 100 S5        30.02F
6HR MIN TEMP:  52; 6HR MAX TEMP:  63;

MARION*        CLEAR     52  48  85 S5        30.03F
6HR MIN TEMP:  40; 6HR MAX TEMP:  90;


$$
INZ028>050-200700-
CENTRAL INDIANA

CITY           SKY/WX    TMP DP  RH WIND       PRES   REMARKS
LAFAYETTE      CLEAR     56  50  80 CALM      30.01F
6HR MIN TEMP:  51; 6HR MAX TEMP:  65;

KOKOMO*        CLEAR     54  46  76 S7        30.03F
6HR MIN TEMP:  52; 6HR MAX TEMP:  61;

MUNCIE*        CLEAR     57  48  72 S6        30.04F
6HR MIN TEMP:  54; 6HR MAX TEMP:  63;

INDIANAPOLIS   PTCLDY    58  51  78 CALM      30.04F
6HR MIN TEMP:  57; 6HR MAX TEMP:  66;


$$
MIZ043>046-050>051-056>058-064>065-071>073-077>080-200700-
SOUTHWEST LOWER MICHIGAN

CITY           SKY/WX    TMP DP  RH WIND       PRES   REMARKS
BATTLE CREEK   PTCLDY    58  46  64 S12       29.98F
6HR MIN TEMP:  57; 6HR MAX TEMP:  62;

BENTON HARBOR  CLEAR     59  48  67 S8        29.95F
6HR MIN TEMP:  57; 6HR MAX TEMP:  63;

COLDWATER*     CLEAR     57  48  73 S7        29.99F
6HR MIN TEMP:  55; 6HR MAX TEMP:  61;

HILLSDALE*     CLEAR     53  49  87 S5        30.01F
6HR MIN TEMP:  51; 6HR MAX TEMP:  59;

HOLLAND        CLEAR     60  49  66 S9        29.94F
6HR MIN TEMP:  59; 6HR MAX TEMP:  63;

GRAND RAPIDS   CLEAR     59  48  67 S10       29.95F
6HR MIN TEMP:  57; 6HR MAX TEMP:  63;

KALAMAZOO      CLEAR     58  48  69 S12       29.97F
6HR MIN TEMP:  57; 6HR MAX TEMP:  64;

STURGIS*       CLEAR     54  48  82 S8        29.99F
THREE RIVERS*  FAIR      55  48  79 S7        29.98F
6HR MIN TEMP:  55; 6HR MAX TEMP:  62;


$$
OHZ001>008-015>018-024>025-200700-
NORTHWEST OHIO

CITY           SKY/WX    TMP DP  RH WIND       PRES   REMARKS
WAUSEON*       FAIR      50  48  93 S5        30.03S
DEFIANCE       PTCLDY    51  46  83 S5        30.03F
6HR MIN TEMP:  50; 6HR MAX TEMP:  60;

FINDLAY        PTCLDY    52  46  80 S6        30.04F
6HR MIN TEMP:  51; 6HR MAX TEMP:  64;

TOLEDO EXPRESS PTCLDY    52  49  89 CALM      30.03F
6HR MIN TEMP:  49; 6HR MAX TEMP:  59;

TOLEDO METCALF PTCLDY    52  47  83 S6        30.04F
6HR MIN TEMP:  51; 6HR MAX TEMP:  58;

LIMA           PTCLDY    55  47  74 S8        30.05F
6HR MIN TEMP:  53; 6HR MAX TEMP:  61;


$$
&&



USA.gov is the U.S. government's official web portal to all federal, state and local government web resources and services.